Location: Milton
(43.5183°N, 79.8775°W)
Time: 19:01:19
(UTC+00:00)

STRAND 1 - Visible Passes

Search period start: 28 March 2023 00:00
Search period end: 07 April 2023 00:00
Orbit: 766 x 780 km, 98.4° (Epoch: 28 March)

Date Brightness Start Highest point End Pass type
(mag) Time Alt. Az. Time Alt. Az. Time Alt. Az.
28 Mar ? 00:51:00 10° N 00:55:50 44° WNW 01:00:37 10° SW visible
28 Mar ? 10:28:58 10° SE 10:33:38 37° ENE 10:38:19 10° N visible
29 Mar ? 00:16:24 10° NNE 00:21:31 89° WNW 00:26:36 10° SSW visible
29 Mar ? 01:57:42 10° NNW 01:59:55 13° WNW 02:02:07 10° W visible
29 Mar ? 09:55:58 10° ESE 09:59:34 20° ENE 10:03:10 10° NNE visible
30 Mar ? 01:21:53 10° N 01:25:57 25° WNW 01:30:00 10° WSW visible
31 Mar ? 00:46:54 10° N 00:51:47 48° WNW 00:56:39 10° SW visible
31 Mar ? 10:25:01 10° SE 10:29:37 34° ENE 10:34:13 10° N visible
01 Apr ? 00:12:20 10° NNE 00:17:28 84° ESE 00:22:33 10° SSW visible
01 Apr ? 01:53:23 10° NNW 01:55:55 14° WNW 01:58:26 10° W visible
01 Apr ? 09:52:08 10° ESE 09:55:33 18° ENE 09:58:57 10° NNE visible
02 Apr ? 01:17:43 10° N 01:21:55 26° WNW 01:26:06 10° WSW visible
03 Apr ? 00:42:48 10° N 00:47:44 52° WNW 00:52:39 10° SW visible
03 Apr ? 10:21:06 10° SE 10:25:35 32° ENE 10:30:05 10° N visible
04 Apr ? 00:08:16 10° NNE 00:13:24 78° ESE 00:18:28 10° S visible
04 Apr ? 01:49:05 10° NNW 01:51:54 15° WNW 01:54:42 10° W visible
04 Apr ? 09:48:21 10° E 09:51:32 17° ENE 09:54:43 10° NNE visible
05 Apr ? 01:13:34 10° N 01:17:53 28° WNW 01:22:10 10° WSW visible
06 Apr ? 00:38:41 10° N 00:43:41 56° WNW 00:48:38 10° SSW visible
06 Apr ? 10:17:09 10° SE 10:21:32 30° ENE 10:25:55 10° N visible
